Regional Weather Roundup
Issued by NWS Sioux Falls, SD

Home | Current Version | Previous Version | Text Only | Print | Product List | Glossary On
Versions: 1 2 3 4 5 6 7 8 9 10 11 12 13 14 15 16 17 18 19 20 21 22 23 24 25 26 27 28 29 30 31 32 33 34 35 36 37 38 39 40 41 42 43 44 45 46 47 48 49 50
000
ASUS43 KFSD 260610
RWRFSD

WEATHER ROUNDUP FOR SE SOUTH DAKOTA/SW MINNESOTA/NW IOWA
NATIONAL WEATHER SERVICE SIOUX FALLS SD
1200 AM CST FRI DEC 26 2014

NOTE: "FAIR" INDICATES FEW OR NO CLOUDS BELOW 12,000 FEET WITH NO
SIGNIFICANT WEATHER AND OR OBSTRUCTIONS TO VISIBILITY.


SDZ038>040-050-052>070-260700-
SOUTHEAST SOUTH DAKOTA

CITY           SKY/WX    TMP DP  RH WIND       PRES   REMARKS
CHAMBERLAIN    CLOUDY    25  23  93 N10G16    29.95S WCI  15
6HR MIN TEMP:  25; 6HR MAX TEMP:  28;

HURON          LGT SNOW  26  24  92 N15       29.93S FOG     WCI  14
6HR MIN TEMP:  26; 6HR MAX TEMP:  26; 6HR PCP:  0.09;

MADISON        CLOUDY    27  27 100 N18       29.85R WCI  13
MITCHELL       CLOUDY    28  25  88 N16       29.92R WCI  16
6HR MIN TEMP:  27; 6HR MAX TEMP:  30; 6HR PCP: TRACE;

SIOUX FALLS    CLOUDY    29  26  89 N16G23    29.84R WCI  17
6HR MIN TEMP:  29; 6HR MAX TEMP:  32; 6HR PCP: TRACE;

WINNER         CLOUDY    26  23  88 N13       29.96R WCI  15
YANKTON        CLOUDY    30  25  80 N17G23    29.87R WCI  18
$$

MNZ071-072-080-081-089-090-097-098-260700-
SOUTHWEST MINNESOTA

CITY           SKY/WX    TMP DP  RH WIND       PRES   REMARKS
FAIRMONT       CLOUDY    32  28  86 N10       29.79S WCI  24
JACKSON        CLOUDY    32  32 100 N14       29.79S FOG     WCI  22
LUVERNE        CLOUDY    32  30  93 N12G22    29.82R WCI  23
MARSHALL       CLOUDY    28  25  86 N17G23    29.86S WCI  16
6HR MIN TEMP:  28; 6HR MAX TEMP:  30;

MONTEVIDEO     CLOUDY    28  28 100 NE13      29.89F WCI  18
PIPESTONE      CLOUDY    28  27  93 NE16G23   29.81S WCI  17
REDWOOD FALLS  CLOUDY    32  30  92 N12       29.84F WCI  23
TRACY          CLOUDY    31  30  98 N14       29.84S FOG     WCI  20
WINDOM         CLOUDY    30  30 100 N10G18    29.81S FOG     WCI  21
WORTHINGTON    CLOUDY    30 -17  12 N16       29.81R WCI  19
$$

IAZ001>003-012>014-020>022-031-032-NEZ013-014-SDZ071-260700-
NORTHWEST IOWA

CITY           SKY/WX    TMP DP  RH WIND       PRES   REMARKS
CHEROKEE       CLOUDY    32  32  99 N8        29.77R WCI  25
DENISON        CLEAR     30  30 100 CALM      29.72S
ESTHERVILLE    CLOUDY    31  30  96 N13       29.78R WCI  21
LE MARS        CLOUDY    34  32  93 N9G18     29.80R WCI  26
ORANGE CITY    CLOUDY    34  30  86 NE13      29.79R FOG     WCI  25
SHELDON        CLOUDY    32  32 100 N15       29.78R WCI  22
SIOUX CITY     CLOUDY    34  31  88 N15       29.80R WCI  24
6HR MIN TEMP:  31; 6HR MAX TEMP:  35;

SPENCER        CLOUDY    33  30  88 N15       29.78R WCI  23
6HR MIN TEMP:  32; 6HR MAX TEMP:  34;

STORM LAKE     PTCLDY    28  28 100 N10       29.76R WCI  19
$$

ABBREVIATIONS USED IN REMARKS
   TC - TEMPERATURE IN CELSIUS
  WCI - WIND CHILL INDEX
   HX - HEAT INDEX
  VSB - VISIBILITY




USA.gov is the U.S. government's official web portal to all federal, state and local government web resources and services.